Volver al catálogo

COSMOS 839 DEB

ActivoUNKNOWN
NORAD 10440·DEBRIS·🇷🇺 Russia

Lanzado Jul 8, 1976 desde Plesetsk Cosmodrome

Loading…

Próximos Pases (próximas 24 horas)

TLE

ActualizadoSource: Space-Track

Época: Sep 13, 2026, 02:05 UTC

1 10440U 76067R   26256.08682259  .00000378  00000-0  13352-2 0  9990
2 10440  65.6505 136.5244 0710547  45.3475  96.2344 12.40600175268993

Sigue COSMOS 839 DEB en tiempo real con AllMySat

Download on the App Store